Wind_Speed
25 24 24 24 24 23 22 22 21 21 20 20 19 19 18 18 17 16 16 16 16 15 15 14 14 14 14 14 14 13 13 14 14 14 14 14 14 15 15 16 16 17 17
27 27 27 26 25 24 23 23 22 22 22 21 20 20 20 20 20 19 18 18 18 17 17 17 16 16 16 16 15 15 15 16 16 17 17 16 17 17 18 18 19 19 20
29 29 29 28 27 26 25 24 24 24 24 24 23 22 22 21 21 21 20 20 20 19 19 19 18 18 18 18 18 18 18 18 18 19 19 19 19 20 20 21 22 22 23
30 30 30 30 30 29 27 26 26 25 26 25 25 25 24 23 23 23 22 22 21 21 20 20 20 20 20 20 20 20 20 21 21 21 22 22 22 23 24 25 25 26 26
31 31 31 32 32 32 30 28 27 27 27 27 27 27 26 26 25 25 24 24 23 23 23 22 23 23 22 22 22 22 23 23 23 23 24 24 25 25 26 27 28 29 29
32 31 31 34 33 32 32 31 30 29 29 30 30 29 28 27 27 27 26 26 25 25 25 25 25 25 24 24 24 24 24 25 25 26 26 27 27 28 28 29 30 31 32
33 32 32 34 34 32 33 32 32 32 31 30 31 31 29 29 29 29 28 28 28 27 27 27 27 27 26 26 26 26 26 26 27 28 28 29 30 31 31 32 33 34 35
32 32 32 33 34 33 33 33 33 33 33 33 32 32 32 31 31 31 31 30 30 29 28 29 29 29 28 28 28 28 28 29 30 30 31 32 32 33 34 34 34 36 37
32 33 32 33 35 35 34 34 34 33 34 34 33 33 33 34 33 33 33 32 32 31 31 31 30 30 30 30 30 30 31 31 32 33 34 34 34 35 35 36 37 37 38
31 32 32 33 34 35 35 35 34 35 34 34 34 33 33 34 34 35 34 33 34 33 33 33 33 32 32 32 32 33 33 34 34 35 35 35 36 36 37 38 39 39 40
31 32 32 33 34 35 35 34 34 34 33 33 34 33 33 34 35 34 34 34 34 34 34 34 34 34 34 35 34 35 35 36 36 36 36 37 37 38 39 40 40 41 42
31 32 32 32 33 33 33 32 33 33 33 32 33 34 34 34 33 34 34 34 35 35 35 35 35 35 35 36 36 36 36 36 37 37 37 38 39 39 39 40 40 41 42
31 31 32 32 33 32 32 31 32 33 33 32 32 33 34 33 33 34 34 34 34 35 36 36 36 36 36 36 36 37 37 37 37 37 38 39 40 39 40 40 41 42 43
28 29 31 31 32 32 31 30 30 31 31 32 32 33 34 34 35 34 34 35 36 36 36 36 36 36 36 36 36 36 36 37 37 38 39 39 39 39 40 40 41 42 43
27 28 29 30 31 31 32 31 30 30 31 31 31 33 33 34 35 34 34 35 35 36 37 35 35 35 35 35 35 36 36 36 37 38 38 38 38 39 39 40 41 42 42
25 26 27 28 29 30 31 30 29 28 29 29 30 31 32 33 33 33 34 35 36 36 35 34 33 34 34 34 34 35 35 36 36 37 37 36 36 38 39 40 40 41 41
25 25 26 26 27 28 28 28 28 28 28 28 28 28 29 30 30 31 32 33 33 33 33 33 34 34 34 34 34 34 34 34 34 34 34 35 36 37 38 38 39 40 40
24 25 25 25 26 27 27 27 27 27 28 27 27 27 27 28 29 30 30 31 31 31 31 31 32 33 32 33 33 32 32 32 33 34 34 35 36 36 37 37 38 38 39
23 23 24 24 25 25 25 25 25 26 27 26 26 26 26 27 26 27 28 28 28 28 29 30 29 29 30 31 30 31 31 31 32 33 33 34 34 35 35 36 36 36 35
23 23 23 23 23 24 23 24 24 24 24 24 24 24 24 25 25 25 26 26 26 26 27 27 27 28 28 29 28 29 29 30 31 31 32 32 33 33 34 34 33 32 31
23 23 23 23 23 22 22 22 23 23 23 23 23 23 23 24 25 25 25 25 25 25 25 25 26 26 26 26 27 28 28 29 29 29 30 31 31 31 31 30 30 29 28
23 23 23 23 23 23 23 22 22 22 22 22 23 23 23 23 22 23 23 24 24 23 23 23 24 24 24 24 25 26 27 27 28 29 29 29 29 28 28 28 27 26 26
22 22 23 23 22 22 22 22 22 21 21 21 21 21 20 21 21 20 21 21 21 22 22 21 22 23 23 24 25 25 26 26 27 28 27 27 27 26 26 25 25 24 23
20 21 20 19 19 19 19 18 18 18 18 18 18 18 18 18 18 18 19 20 20 20 20 21 22 22 23 23 24 24 25 25 26 26 25 25 24 24 24 23 22 21 20
17 17 16 15 16 15 15 15 15 15 14 15 16 16 17 17 17 18 18 18 19 19 20 21 21 21 22 22 22 23 23 23 23 23 22 22 21 21 21 20 19 18 17
15 15 15 14 13 12 13 13 13 13 13 14 14 15 15 16 17 17 17 18 18 19 20 21 21 21 21 21 21 21 21 21 21 21 20 20 20 19 18 17 16 15 14
Wind_Direction
249 247 246 245 246 246 247 247 247 246 244 244 246 247 246 246 245 244 244 244 245 246 249 252 256 261 266 272 277 279 280 280 277 278 278 277 277 276 275 276 276 277 277
251 249 248 246 247 247 247 245 245 246 245 245 247 247 247 248 247 246 245 246 247 248 250 253 256 260 264 269 273 277 279 280 278 276 277 276 276 276 275 275 276 276 277
253 251 249 246 246 247 247 245 245 246 247 246 247 247 247 249 249 247 245 247 248 249 251 254 256 259 264 268 272 275 278 278 279 277 277 276 277 277 276 275 276 276 278
254 250 249 249 247 246 247 247 246 247 247 247 247 248 246 246 249 250 248 248 248 250 252 254 256 258 263 267 271 274 276 277 278 278 276 276 276 277 278 277 277 277 278
253 251 250 250 249 248 248 248 248 248 248 248 248 247 246 246 249 250 249 249 250 251 252 254 256 258 262 266 269 272 275 276 277 278 277 277 277 278 279 278 277 277 278
254 254 253 250 250 249 248 248 250 249 249 250 249 248 248 247 250 251 250 249 251 253 253 254 256 259 262 266 268 271 275 277 278 278 278 278 278 278 279 279 279 279 280
256 255 254 251 248 248 248 248 249 249 250 249 249 248 247 248 250 252 253 252 252 254 255 256 258 261 264 267 270 271 274 276 278 278 278 279 279 279 280 280 280 281 281
255 255 253 250 248 248 248 249 250 249 250 250 250 247 246 248 251 253 253 254 254 254 254 256 258 262 266 269 271 272 273 276 277 277 278 279 280 281 281 281 281 282 282
255 255 253 250 249 249 249 249 248 249 249 249 248 250 249 250 251 253 254 255 255 255 255 256 259 262 266 268 270 272 274 277 278 278 279 279 280 281 281 281 281 282 282
254 253 253 251 249 249 250 251 250 248 248 248 249 251 251 251 250 252 253 256 257 256 255 258 260 262 264 268 270 272 274 277 279 279 279 279 281 281 282 282 282 282 283
252 251 251 251 251 250 250 249 249 249 249 249 251 251 252 251 250 252 254 255 256 256 256 258 258 261 264 267 269 272 274 276 278 278 278 279 280 281 282 283 283 283 284
250 251 252 254 252 251 249 248 249 249 248 249 248 248 251 251 252 253 255 256 257 256 257 259 261 263 266 268 270 273 275 276 278 277 277 280 282 282 283 284 285 286 287
250 249 250 251 251 251 251 250 249 249 248 247 246 247 248 248 250 251 253 255 255 255 257 261 263 264 266 268 270 273 275 275 277 279 279 281 282 283 285 285 286 287 289
252 250 250 250 250 251 251 250 250 249 249 246 245 245 247 248 248 248 251 252 254 255 258 261 262 264 265 268 271 273 274 275 277 278 280 281 283 285 286 287 288 290 291
253 253 252 250 249 250 249 249 249 249 248 246 246 246 247 248 247 248 249 251 254 255 258 261 263 265 267 269 272 273 273 274 276 278 280 282 285 286 287 289 291 292 293
256 254 252 250 249 250 250 249 248 248 248 247 246 246 245 247 248 250 250 252 254 256 258 260 263 265 267 269 271 272 272 275 277 280 282 284 286 288 290 291 293 294 295
256 253 251 250 250 250 250 247 248 250 250 249 248 248 246 247 246 249 251 251 253 256 257 260 262 265 267 268 272 273 275 278 280 283 284 287 289 291 293 294 295 296 297
257 255 252 251 250 250 249 248 248 250 250 248 247 247 247 248 249 251 252 252 253 254 256 259 263 266 268 272 275 276 279 282 284 285 287 289 291 292 294 295 296 297 298
257 255 252 251 251 250 250 247 247 247 246 245 246 247 248 248 251 252 253 254 256 258 260 264 267 270 274 277 278 280 282 284 286 289 291 291 292 294 296 297 298 299 299
257 256 254 252 251 250 247 246 245 244 244 245 246 248 249 250 254 255 254 256 259 262 264 267 271 275 277 279 281 283 285 288 290 292 293 294 295 296 297 298 299 300 300
258 257 255 255 254 252 247 246 245 243 243 244 246 248 251 253 254 254 257 259 261 265 268 272 275 276 279 282 286 288 289 291 292 294 295 296 297 298 299 299 300 301 301
261 257 254 254 254 253 250 248 247 246 246 247 247 248 249 251 251 254 257 261 264 268 271 274 277 280 284 287 289 290 291 293 294 295 296 297 298 299 300 300 300 301 301
260 257 255 255 253 253 250 247 247 245 246 248 247 247 250 253 256 259 262 263 266 269 273 277 281 285 287 289 290 292 293 294 295 297 297 298 298 299 300 301 301 300 300
259 256 257 253 247 245 243 240 242 244 245 246 248 248 250 254 257 261 264 267 270 273 276 280 283 286 289 290 291 292 293 295 296 297 297 298 299 300 302 302 302 301 300
255 254 251 244 239 238 240 240 241 242 245 248 248 249 251 256 260 263 266 269 271 275 279 282 285 288 289 291 292 294 295 296 297 298 299 300 301 301 302 303 303 302 301
250 248 244 240 239 239 239 243 244 242 246 249 251 253 255 259 262 263 267 270 274 279 283 285 288 289 291 293 294 295 296 297 298 299 300 301 301 301 302 302 302 303 301
Height
5874 5875 5876 5878 5879 5879 5880 5882 5883 5885 5886 5887 5888 5889 5889 5890 5891 5892 5892 5893 5894 5895 5895 5895 5896 5896 5896 5895 5895 5895 5895 5894 5894 5894 5893 5893 5892 5892 5891 5891 5890 5889 5888
5869 5870 5871 5873 5874 5874 5875 5877 5879 5880 5881 5883 5884 5885 5886 5887 5887 5888 5889 5889 5890 5891 5892 5892 5892 5892 5892 5892 5892 5891 5891 5891 5890 5890 5890 5889 5889 5888 5887 5887 5886 5885 5884
5863 5864 5865 5867 5868 5869 5870 5872 5873 5875 5876 5878 5879 5880 5881 5882 5883 5884 5885 5885 5886 5887 5888 5888 5889 5889 5888 5888 5888 5888 5888 5887 5887 5886 5886 5885 5884 5884 5883 5882 5881 5881 5879
5857 5858 5859 5861 5862 5863 5865 5867 5868 5870 5871 5873 5874 5875 5877 5878 5879 5879 5880 5881 5882 5883 5883 5884 5884 5884 5884 5884 5884 5884 5883 5883 5882 5881 5881 5880 5879 5879 5878 5877 5876 5875 5874
5850 5851 5853 5854 5855 5857 5859 5861 5862 5864 5866 5867 5869 5870 5871 5872 5874 5874 5875 5876 5877 5878 5878 5879 5879 5879 5880 5880 5879 5879 5878 5878 5877 5877 5876 5875 5874 5873 5872 5871 5870 5869 5867
5843 5844 5845 5846 5849 5851 5853 5854 5856 5858 5859 5861 5862 5864 5865 5867 5868 5869 5870 5871 5872 5872 5873 5874 5874 5874 5874 5874 5874 5874 5873 5873 5872 5871 5870 5869 5868 5867 5866 5864 5863 5862 5860
5836 5837 5838 5839 5842 5844 5846 5847 5849 5850 5852 5854 5855 5857 5859 5861 5862 5864 5864 5865 5866 5867 5867 5868 5868 5869 5869 5869 5868 5868 5868 5867 5866 5865 5864 5863 5862 5860 5859 5857 5856 5854 5852
5828 5828 5830 5831 5834 5836 5838 5840 5842 5843 5845 5847 5848 5850 5852 5855 5856 5857 5858 5860 5861 5861 5861 5862 5862 5863 5863 5863 5862 5862 5861 5861 5860 5859 5857 5856 5855 5853 5852 5850 5848 5846 5844
5820 5821 5823 5824 5827 5829 5831 5832 5834 5836 5837 5839 5841 5843 5845 5847 5849 5850 5851 5853 5854 5855 5855 5856 5856 5856 5856 5856 5855 5855 5854 5854 5852 5851 5850 5849 5847 5845 5844 5842 5840 5837 5835
5813 5815 5816 5818 5819 5821 5823 5824 5826 5828 5830 5832 5834 5836 5838 5840 5841 5843 5844 5845 5847 5848 5848 5849 5849 5849 5849 5849 5848 5848 5847 5846 5845 5843 5842 5840 5839 5837 5835 5833 5831 5828 5826
5805 5807 5808 5810 5811 5813 5815 5816 5818 5820 5822 5824 5826 5828 5829 5831 5833 5835 5837 5838 5839 5840 5841 5841 5842 5842 5842 5842 5841 5840 5839 5838 5837 5835 5834 5832 5830 5829 5826 5824 5822 5819 5816
5798 5799 5801 5802 5804 5806 5807 5809 5811 5812 5814 5816 5818 5820 5822 5823 5826 5828 5829 5830 5831 5832 5833 5834 5834 5834 5834 5834 5833 5832 5831 5830 5828 5827 5825 5824 5822 5819 5817 5815 5812 5809 5806
5791 5792 5793 5795 5797 5798 5800 5802 5803 5805 5807 5808 5810 5813 5814 5816 5818 5820 5821 5822 5823 5824 5825 5826 5826 5826 5826 5825 5825 5824 5823 5821 5820 5818 5816 5815 5813 5810 5808 5805 5803 5800 5796
5784 5785 5786 5788 5790 5791 5793 5795 5797 5798 5800 5802 5803 5805 5807 5808 5810 5811 5813 5814 5815 5816 5817 5818 5818 5818 5817 5817 5816 5815 5814 5813 5811 5810 5808 5806 5804 5801 5799 5796 5793 5790 5787
5777 5778 5780 5781 5783 5785 5786 5788 5790 5792 5793 5795 5796 5798 5799 5801 5802 5804 5805 5807 5808 5808 5809 5810 5809 5809 5809 5808 5807 5806 5805 5804 5803 5801 5799 5797 5794 5792 5790 5787 5784 5780 5777
5771 5772 5773 5775 5776 5778 5780 5781 5783 5785 5786 5788 5789 5791 5792 5794 5795 5796 5797 5798 5800 5801 5801 5801 5801 5801 5800 5799 5799 5798 5796 5795 5794 5792 5790 5788 5785 5783 5780 5777 5774 5771 5767
5765 5766 5767 5768 5770 5772 5773 5775 5777 5778 5780 5781 5782 5783 5785 5786 5787 5788 5789 5790 5791 5793 5793 5793 5793 5792 5792 5791 5790 5789 5788 5787 5785 5783 5781 5779 5777 5774 5772 5768 5765 5761 5758
5759 5760 5761 5762 5764 5765 5767 5768 5770 5772 5773 5774 5776 5777 5778 5779 5780 5782 5783 5783 5784 5784 5785 5785 5785 5784 5784 5783 5782 5781 5779 5778 5776 5775 5773 5770 5768 5766 5763 5759 5756 5752 5748
5753 5754 5755 5756 5758 5759 5760 5761 5763 5765 5767 5768 5769 5771 5772 5773 5774 5775 5776 5777 5777 5777 5777 5778 5777 5777 5776 5775 5774 5773 5771 5770 5768 5766 5764 5762 5760 5757 5754 5751 5747 5744 5740
5747 5748 5749 5750 5752 5753 5754 5756 5757 5759 5761 5762 5764 5765 5766 5767 5768 5769 5770 5770 5771 5771 5771 5771 5771 5770 5769 5768 5767 5766 5764 5762 5761 5759 5756 5754 5752 5749 5746 5742 5739 5736 5732
5742 5742 5743 5745 5746 5747 5748 5750 5751 5753 5755 5757 5758 5759 5761 5762 5763 5764 5764 5765 5765 5765 5765 5765 5764 5763 5762 5761 5760 5759 5757 5755 5753 5751 5749 5747 5744 5741 5738 5735 5732 5728 5725
5736 5737 5738 5739 5740 5742 5743 5745 5746 5748 5749 5751 5752 5754 5755 5756 5757 5758 5759 5759 5759 5759 5759 5759 5758 5757 5756 5755 5754 5752 5751 5749 5747 5745 5742 5739 5736 5734 5731 5728 5725 5722 5719
5730 5731 5732 5733 5734 5736 5737 5739 5741 5742 5744 5745 5747 5748 5749 5750 5751 5752 5753 5753 5754 5753 5753 5753 5752 5751 5750 5749 5748 5746 5744 5742 5740 5737 5735 5733 5730 5727 5724 5722 5719 5716 5714
5724 5725 5726 5727 5729 5731 5732 5734 5736 5737 5738 5740 5742 5743 5744 5745 5746 5747 5747 5748 5748 5748 5748 5748 5747 5746 5744 5743 5741 5740 5738 5736 5733 5731 5729 5727 5724 5721 5718 5716 5713 5711 5708
5719 5721 5722 5723 5724 5726 5728 5730 5731 5733 5734 5736 5737 5738 5739 5740 5741 5742 5743 5743 5743 5743 5743 5742 5741 5740 5738 5737 5735 5734 5732 5730 5728 5725 5723 5721 5718 5716 5714 5711 5709 5706 5704
5715 5717 5718 5719 5720 5722 5724 5726 5727 5729 5730 5732 5733 5734 5735 5736 5737 5737 5738 5738 5738 5737 5737 5736 5735 5734 5732 5731 5729 5728 5726 5724 5722 5720 5718 5716 5714 5711 5709 5707 5705 5703 5700